Location: �quirre
(50.4736°N, 2.2351°E)
Time: 17:36:52
(UTC+00:00)

SL-08 R/B - Pass Details

Date: 07 August 2020
Orbit: 673 x 740 km, 98.4° (Epoch: 24 September)

Event Time Altitude Azimuth Distance (km) Brightness Sun altitude
Exits shadow 02:43:53 - 172° (S) 2,430 5.7 -13.8°
Reaches altitude 10° 02:44:22 10° 173° (S) 2,240 5.5 -13.8°
Maximum altitude 02:49:17 70° 257° (WSW) 792 3.4 -13.3°
Drops below altitude 10° 02:54:15 10° 341° (NNW) 2,261 6.3 -12.7°
Sets 02:56:34 0° 344° (NNW) 3,186 7.1 -12.5°
